GW0762 Weather Reports


time (UTC)temp
C
wind
direction
speed
KPH
gust
KPH
rain 1hr
cm
rain 24hr
cm
rain mn
cm
humidity
%
barometer
mb
20260503060115 1 0 0.0 0.0 0.00 0.00 0.00 87 1018.7
20260503054556 1 0 0.0 0.0 0.00 0.00 0.00 86 1018.8
20260503053058 1 0 0.0 0.0 0.00 0.00 0.00 86 1018.9
20260503051601 2 0 0.0 0.0 0.00 0.00 0.00 86 1018.6
20260503050059 2 0 0.0 0.0 0.00 0.00 0.00 85 1018.7
20260503044625 2 0 0.0 0.0 0.00 0.00 0.00 85 1018.6
20260503043058 2 0 0.0 0.0 0.00 0.00 0.00 84 1018.4
20260503041559 3 0 0.0 0.0 0.00 0.00 0.00 83 1018.4
20260503040105 3 0 0.0 0.0 0.00 0.00 0.00 83 1018.2
20260503034602 3 0 0.0 0.0 0.00 0.00 0.00 82 1018.2
20260503033109 4 0 0.0 0.0 0.00 0.00 0.00 81 1018.0
20260503031557 5 0 0.0 1.6 0.00 0.00 0.00 80 1017.9
20260503030109 5 0 0.0 0.0 0.00 0.00 0.00 79 1017.9
20260503024602 5 0 0.0 0.0 0.00 0.00 0.00 77 1017.8
20260503023101 6 0 0.0 0.0 0.00 0.00 0.00 76 1017.7
20260503021603 6 0 0.0 0.0 0.00 0.00 0.00 75 1017.5
20260503020108 7 0 0.0 0.0 0.00 0.00 0.00 73 1017.4
20260503014606 7 178 0.0 1.6 0.00 0.00 0.00 71 1017.2
20260503013117 8 0 0.0 0.0 0.00 0.00 0.00 69 1016.9
20260503011558 9 0 0.0 0.0 0.00 0.00 0.00 68 1016.7
20260503010058 10 0 0.0 0.0 0.00 0.00 0.00 65 1016.5
20260503004604 10 172 0.0 0.0 0.00 0.00 0.00 62 1016.2
20260503003103 10 0 0.0 1.6 0.00 0.00 0.00 61 1016.1
20260503001559 11 0 0.0 3.2 0.00 0.00 0.00 60 1016.0
20260503000105 11 152 0.0 3.2 0.00 0.00 0.00 56 1015.9
20260502234617 11 0 0.0 6.4 0.00 0.00 0.00 55 1015.8
20260502233059 12 0 1.6 4.8 0.00 0.00 0.00 48 1015.7
20260502231558 12 0 0.0 3.2 0.00 0.00 0.00 49 1015.4
20260502230059 12 0 0.0 4.8 0.00 0.00 0.00 46 1015.5
20260502224604 12 263 1.6 8.0 0.00 0.00 0.00 44 1015.4
20260502223105 13 178 1.6 11.3 0.00 0.00 0.00 45 1015.3
20260502221603 13 188 1.6 8.0 0.00 0.00 0.00 44 1015.3
20260502220104 13 194 3.2 11.3 0.00 0.00 0.00 42 1015.2
20260502214615 13 325 1.6 17.7 0.00 0.00 0.00 41 1015.0
20260502213121 13 201 1.6 6.4 0.00 0.00 0.00 45 1015.0
20260502211601 13 360 3.2 12.9 0.00 0.00 0.00 42 1015.0
20260502210100 14 360 4.8 22.5 0.00 0.00 0.00 40 1015.1
20260502204559 13 360 1.6 11.3 0.00 0.00 0.00 44 1015.0
20260502203116 13 360 4.8 14.5 0.00 0.00 0.00 40 1015.2
20260502201558 13 360 0.0 8.0 0.00 0.00 0.00 45 1015.2
20260502200105 13 351 3.2 11.3 0.00 0.00 0.00 44 1015.4
20260502194558 13 229 1.6 19.3 0.00 0.00 0.00 44 1015.3
20260502193059 14 360 1.6 12.9 0.00 0.00 0.00 43 1015.3
20260502191603 13 360 1.6 8.0 0.00 0.00 0.00 42 1015.6
20260502190059 14 360 3.2 14.5 0.00 0.00 0.00 42 1015.6
20260502184559 12 0 1.6 6.4 0.00 0.00 0.00 46 1016.0
20260502183108 12 0 1.6 12.9 0.00 0.00 0.00 44 1016.1
20260502181601 12 208 3.2 11.3 0.00 0.00 0.00 44 1016.1
20260502163110 13 207 3.2 14.5 0.00 0.00 0.00 46 1016.5
20260502161620 13 360 3.2 20.9 0.00 0.00 0.00 47 1016.7
20260502151558 12 360 3.2 14.5 0.00 0.00 0.00 54 1017.0
20260502130107 5 0 0.0 0.0 0.00 0.00 0.00 93 1017.3
20260502123117 3 0 0.0 0.0 0.00 0.00 0.00 92 1017.3
20260502121607 2 0 0.0 0.0 0.00 0.00 0.00 91 1017.2
20260502120120 2 0 0.0 0.0 0.00 0.00 0.00 91 1017.1
20260502114608 1 0 0.0 0.0 0.00 0.00 0.00 91 1017.0
20260502113133 1 0 0.0 0.0 0.00 0.00 0.00 91 1016.9
20260502111558 1 0 0.0 0.0 0.00 0.00 0.00 91 1016.9
20260502110058 1 0 0.0 0.0 0.00 0.00 0.00 90 1016.7
20260502104559 1 0 0.0 0.0 0.00 0.00 0.00 90 1016.5
20260502103058 1 0 0.0 0.0 0.00 0.00 0.00 90 1016.6
20260502101604 1 0 0.0 0.0 0.00 0.00 0.00 90 1016.7
20260502100106 1 0 0.0 0.0 0.00 0.00 0.00 90 1017.0
20260502090105 1 0 0.0 0.0 0.00 0.00 0.00 90 1017.1
20260502070113 2 0 0.0 0.0 0.00 0.00 0.00 88 1016.7